Landsat 4 - Orbit

View from above orbital plane
View from above orbital plane
View from above satellite
View from above satellite

Ground track
Ground track

The orbit data is extracted from the following two-line orbital elements,

1 13367U 82072A   13140.52732740  .00002931  00000-0  19575-3 0  3504
2 13367 098.2617 169.9509 0015886 196.0884 329.1388 15.07814060660006
Epoch (UTC): 20 May 2013 12:39:21
Eccentricity: 0.0015886
inclination: 98.2617°
perigee height: 532 km
apogee height: 554 km
right ascension of ascending node: 169.9509°
argument of perigee: 196.0884°
revolutions per day: 15.07814060
mean anomaly at epoch: 329.1388°
orbit number at epoch: 66000

The dashed part of the orbit path shows where the satellite is in the earth's shadow,  

Developed and maintained by Chris Peat, Heavens-Above GmbH. Please read the updated FAQ before sending e-mail. Imprint. DLR